Orbital Elements at Epoch 2459000.5 (2020-May-31.0) TDB
Reference: JPL 24 (heliocentric ecliptic J2000)
Element | Value | Uncertainty (1-sigma) | Units |
e | .1495098778642878 | 3.2208e-08 | |
a | 2.620267327527491 | 1.0223e-08 | au |
q | 2.228511479417072 | 8.4276e-08 | au |
i | 3.777021758578885 | 4.9081e-06 | deg |
node | 6.288909222391589 | 4.3898e-05 | deg |
peri | 295.2924781066455 | 4.6957e-05 | deg |
M | 10.44221971229908 | 1.5113e-05 | deg |
tp | 2458955.562681320300 (2020-Apr-16.06268132) | 6.5098e-05 | TDB |
period | 1549.233321114479 4.24 | 9.0669e-06 2.482e-08 | d yr |
n | .232373003532499 | 1.36e-09 | deg/d |
Q | 3.01202317563791 | 1.1752e-08 | au |
|
| | Orbit Determination Parameters
Additional Information
|